This demonstration page uses our WeatherBlox Daily Observations layout. Learn more.

Left ArrowRight Arrow

40.92945, -100.16068

Hourly Observations for December 20, 2020

Temp ( °F °C ) Dew Point ( °F °C ) Humidity (%) Winds ( mph kmh ) Pressure ( in mb ) Visibility ( mi km ) Precip ( " mm )
12:15 am 00:15 Clear 35 1.6 28 -2.5 74 74 WNW 14 22 30.07 1018 10 16.0934 0 0
12:35 am 00:35 Clear 35 1.7 27 -2.7 73 73 WNW 15 24 30.09 1019 10 16.0934 0 0
12:55 am 00:55 Partly Cloudy 34 1.1 26 -3.1 74 74 WNW 15 24 30.1 1019 10 16.0934 0 0
1:15 am 01:15 Mostly Cloudy 34 1.3 26 -3.1 73 73 WNW 16 26 30.09 1019 10 16.0934 0 0
1:35 am 01:35 Cloudy 34 1.2 27 -2.8 75 75 WNW 15 24 30.11 1019 10 16.0934 0 0
1:55 am 01:55 Cloudy 34 1.1 27 -2.7 76 76 WNW 13 20 30.1 1019 10 16.0934 0 0
2:15 am 02:15 Cloudy 34 1.2 27 -2.8 75 75 WNW 14 22 30.11 1019 10 16.0934 0 0
2:35 am 02:35 Cloudy 35 1.4 27 -2.6 75 75 WNW 16 26 30.1 1019 10 16.0934 0 0
2:55 am 02:55 Cloudy 35 1.5 28 -2.5 75 75 WNW 13 20 30.1 1019 10 16.0934 0 0
3:15 am 03:15 Cloudy 35 1.5 28 -2.5 75 75 NW 8 13 30.11 1020 10 16.0934 0 0
3:35 am 03:35 Cloudy 35 1.9 28 -2.4 73 73 WNW 10 17 30.11 1020 10 16.0934 0 0
3:55 am 03:55 Cloudy 35 1.9 28 -2.5 73 73 WNW 10 17 30.11 1020 10 16.0934 0 0
4:15 am 04:15 Cloudy 35 1.4 28 -2.3 77 77 NW 10 17 30.12 1020 10 16.0934 0 0
4:35 am 04:35 Cloudy 34 1 28 -2.5 78 78 NW 10 17 30.12 1020 10 16.0934 0 0
4:55 am 04:55 Mostly Cloudy 34 0.9 27 -2.7 77 77 WNW 10 17 30.12 1020 10 16.0934 0 0
5:15 am 05:15 Partly Cloudy 33 0.5 27 -3 78 78 WNW 12 19 30.12 1020 10 16.0934 0 0
5:35 am 05:35 Clear 33 0.3 27 -3 79 79 WNW 12 19 30.11 1020 10 16.0934 0 0
5:55 am 05:55 Clear 32 0 26 -3.5 78 78 WNW 9 15 30.12 1020 10 16.0934 0 0
6:15 am 06:15 Clear 32 0 25 -3.7 76 76 WNW 9 15 30.12 1020 10 16.0934 0 0
6:35 am 06:35 Clear 32 -0.2 25 -3.7 78 78 WNW 9 15 30.13 1020 10 16.0934 0 0
6:55 am 06:55 Clear 31 -0.7 25 -4 79 79 WNW 8 13 30.13 1020 10 16.0934 0 0
7:15 am 07:15 Clear 30 -1.2 25 -4.1 81 81 NW 5 7 30.14 1021 10 16.0934 0 0
7:35 am 07:35 Clear 28 -2 24 -4.7 82 82 W 3 6 30.14 1021 10 16.0934 0 0
7:55 am 07:55 Clear 27 -3 23 -5.1 86 86 WNW 6 9 30.15 1021 10 16.0934 0 0
8:15 am 08:15 Sunny 27 -2.6 23 -5.2 83 83 NW 5 7 30.13 1020 10 16.0934 0 0
8:35 am 08:35 Sunny 27 -2.9 22 -5.4 83 83 NW 3 6 30.14 1021 10 16.0934 0 0
8:55 am 08:55 Sunny 28 -2.2 23 -5 81 81 WNW 3 6 30.12 1020 10 16.0934 0 0
9:15 am 09:15 Sunny 30 -1.3 24 -4.5 79 79 WNW 6 9 30.11 1020 10 16.0934 0 0
9:35 am 09:35 Sunny 32 -0.2 25 -4 76 76 WNW 6 9 30.09 1019 10 16.0934 0 0
9:55 am 09:55 Sunny 33 0.7 25 -3.8 72 72 WNW 10 17 30.09 1019 10 16.0934 0 0
10:15 am 10:15 Sunny 34 1.3 26 -3.3 72 72 WNW 7 11 30.07 1018 10 16.0934 0 0
10:35 am 10:35 Sunny 37 2.6 26 -3.1 66 66 WNW 7 11 30.06 1018 10 16.0934 0 0
10:55 am 10:55 Sunny 38 3.3 27 -2.8 65 65 WNW 6 9 30.04 1017 10 16.0934 0 0
11:15 am 11:15 Sunny 39 4 28 -2.3 64 64 Calm 30.03 1017 10 16.0934 0 0
11:35 am 11:35 Sunny 42 5.5 27 -2.6 56 56 WSW 3 6 29.97 1015 10 16.0934 0 0
11:55 am 11:55 Sunny 41 5.1 29 -1.9 61 61 Calm 29.98 1015 10 16.0934 0 0
12:15 pm 12:15 Sunny 42 5.8 28 -2 58 58 SW 3 6 29.95 1014 10 16.0934 0 0
12:35 pm 12:35 Sunny 42 5.6 29 -1.8 59 59 SW 8 13 29.94 1014 10 16.0934 0 0
12:55 pm 12:55 Sunny 43 6.3 28 -2 56 56 SW 10 17 29.94 1014 10 16.0934 0 0
1:15 pm 13:15 Sunny 43 6.2 28 -2.2 55 55 WSW 10 17 29.93 1013 10 16.0934 0 0
1:35 pm 13:35 Sunny 44 6.5 29 -1.5 57 57 SW 9 15 29.9 1013 10 16.0934 0 0
1:55 pm 13:55 Sunny 45 7 29 -1.5 55 55 SSW 9 15 29.88 1012 10 16.0934 0 0
2:15 pm 14:15 Sunny 45 7 29 -1.5 55 55 SSW 9 15 29.87 1011 10 16.0934 0 0
2:35 pm 14:35 Sunny 44 6.7 29 -1.4 57 57 SSW 10 17 29.86 1011 10 16.0934 0 0
2:55 pm 14:55 Sunny 45 7.1 30 -1 57 57 SSW 12 19 29.85 1011 10 16.0934 0 0
3:15 pm 15:15 Sunny 45 7.2 30 -1.1 56 56 SW 13 20 29.85 1011 10 16.0934 0 0
3:35 pm 15:35 Sunny 45 7.2 30 -1 56 56 SW 12 19 29.84 1010 10 16.0934 0 0
3:55 pm 15:55 Sunny 45 7.1 30 -1.1 56 56 SSW 16 26 29.82 1010 10 16.0934 0 0
4:15 pm 16:15 Sunny 45 7 31 -0.7 58 58 WSW 3 6 29.83 1010 10 16.0934 0 0
4:35 pm 16:35 Sunny 44 6.7 31 -0.5 60 60 SW 10 17 29.81 1010 10 16.0934 0 0
4:55 pm 16:55 Sunny 45 7 30 -1.1 57 57 SW 10 17 29.81 1009 10 16.0934 0 0
5:15 pm 17:15 Clear 42 5.8 30 -1.1 62 62 W 7 11 29.82 1010 10 16.0934 0 0
5:30 pm 17:30 Clear 44 6.9 29 -1.8 54 54 WSW 12 19 29.81 1009 10 16.0934 0 0
5:55 pm 17:55 Clear 44 6.9 28 -2.5 52 52 WSW 13 20 29.82 1010 10 16.0934 0 0
6:15 pm 18:15 Clear 43 6.1 28 -2.5 54 54 WSW 12 19 29.83 1010 10 16.0934 0 0
6:35 pm 18:35 Clear 43 6 27 -2.7 54 54 SW 12 19 29.83 1010 10 16.0934 0 0
6:55 pm 18:55 Clear 42 5.3 28 -2.5 58 58 WSW 9 15 29.84 1010 10 16.0934 0 0
7:15 pm 19:15 Clear 40 4.5 28 -2.3 62 62 WSW 9 15 29.83 1010 10 16.0934 0 0
7:35 pm 19:35 Clear 41 5.1 28 -2.5 58 58 WSW 12 19 29.84 1010 10 16.0934 0 0
7:55 pm 19:55 Clear 41 5.1 28 -2.5 58 58 WSW 10 17 29.84 1010 10 16.0934 0 0
8:15 pm 20:15 Clear 41 4.9 28 -2.3 60 60 WSW 9 15 29.85 1011 10 16.0934 0 0
8:35 pm 20:35 Clear 40 4.4 28 -2.1 63 63 W 10 17 29.86 1011 10 16.0934 0 0
8:55 pm 20:55 Clear 39 3.7 28 -2 67 67 W 10 17 29.87 1012 10 16.0934 0 0
9:15 pm 21:15 Clear 39 3.7 28 -2 67 67 W 10 17 29.87 1012 10 16.0934 0 0
9:35 pm 21:35 Clear 38 3.2 28 -2 69 69 W 9 15 29.89 1012 10 16.0934 0 0
9:55 pm 21:55 Clear 36 2 28 -2.3 73 73 WNW 8 13 29.9 1012 10 16.0934 0 0
10:15 pm 22:15 Clear 38 3.5 28 -2.2 67 67 WNW 10 17 29.89 1012 10 16.0934 0 0
10:35 pm 22:35 Clear 37 2.6 28 -2.3 70 70 NW 10 17 29.9 1013 10 16.0934 0 0
10:55 pm 22:55 Clear 37 2.6 28 -2.2 71 71 WNW 9 15 29.92 1013 10 16.0934 0 0
11:15 pm 23:15 Clear 35 1.5 28 -2.2 77 77 NW 8 13 29.95 1014 10 16.0934 0 0
11:35 pm 23:35 Clear 35 1.4 28 -2.1 78 78 NNW 9 15 29.96 1015 10 16.0934 0 0
11:55 pm 23:55 Clear 35 1.8 28 -2.2 75 75 NW 10 17 29.97 1015 10 16.0934 0 0

Powered by AerisWeather